リニア彗星

439P/LINEAR (2021)

English version
Home page
Updated on December 18, 2022

---------------------------------------------------------------------

・ プロフィール

符号 439P/2021 W1
検出日 2021年11月30日
検出光度 19.8等
検出者 E. Schwab (Egelsbach, Germany)

・ 軌道要素

Epoch 2022 Jan. 21.0 TT = JDT 2459600.5
T 2021 Aug. 26.09298 TT                                 Rudenko
q   1.8501958            (2000.0)            P               Q
n   0.15134534     Peri.  341.99191     +0.78160160     -0.61518528
a   3.4873057      Node    56.41814     +0.58645625     +0.66835736
e   0.4694483      Incl.    7.11439     +0.21252766     +0.41814532
P   6.51
From 157 observations 2008 Nov. 30-2022 Jan. 6, mean residual 0".7.

・ 光度変化

        m1 = 16.0 + 5 logΔ + 10.0 log r

---------------------------------------------------------------------

軌道要素はM.P.E.C. 2022-C56に掲載されたものです。
光度グラフはComet for Windowsで作成したものです。

---------------------------------------------------------------------

Copyright(C) Seiichi Yoshida (comet@aerith.net). All rights reserved.